Location: Noulens
(43.8099°N, 0.1664°E)
Time: 03:32:46
(UTC+00:00)

SL-16 R/B - Pass Details

Date: 07 June 2020
Orbit: 986 x 1006 km, 99.5° (Epoch: 10 July)

Event Time Altitude Azimuth Distance (km) Brightness Sun altitude
Exits shadow 01:55:27 25° 180° (S) 1,887 3.5 -18.2°
Maximum altitude 01:59:14 68° 257° (WSW) 1,063 2.5 -17.9°
Drops below altitude 10° 02:05:24 10° 340° (NNW) 2,761 5.4 -17.3°
Sets 02:07:55 0° 343° (NNW) 3,717 6.2 -17.1°
